Weather History for Viroqua, WI

Change the Weather History Date:

Thursday, February 20, 2014

  Actual Average (KLSE) Record (KLSE)
Temperature  
Mean Temperature 34 °F 24 °F  
Max Temperature 35 °F 33 °F 61 °F (1930)
Min Temperature 31 °F 15 °F -27 °F (1873)
Degree Days  
Heating Degree Days 32 41  
Month to date heating degree days 879  
Since 1 July heating degree days 5198  
Cooling Degree Days 0 0  
Month to date cooling degree days 0  
Year to date cooling degree days 0  
Moisture  
Dew Point 31 °F    
Average Humidity 93    
Maximum Humidity 100    
Minimum Humidity 72    
Precipitation  
Precipitation 0.04 in 0.04 in 0.91 in (1937)
Month to date precipitation 0.71  
Year to date precipitation 1.83  
Snow  
Snow 0.00 in 0.30 in 5.20 in (1937)
Month to date snowfall 6.0  
Since 1 July snowfall 32.3  
Snow Depth -    
Sea Level Pressure  
Sea Level Pressure 29.41 in    
Wind  
Wind Speed 12 mph (East)    
Max Wind Speed 26 mph    
Max Gust Speed 37 mph    
Visibility 5 miles    
Events      
T = Trace of Precipitation, MM = Missing Value Source: NWS Daily Summary

Daily Weather History Graph

Daily Weather History Graph

Search for Another Location

Airport:

Trip Planner

Search our weather history database for the weather conditions in past years. The results will help you decide how hot, cold, wet, or windy it might be!

Date:

Astronomy

Feb. 20, 2014 Rise Set
Actual Time 6:54 AM CST 5:40 PM CST
Civil Twilight 6:25 AM CST 6:09 PM CST
Nautical Twilight 5:52 AM CST 6:43 PM CST
Astronomical Twilight 5:18 AM CST 7:16 PM CST
Moon 11:47 PM CST (2/20) 9:26 AM CST (2/20)
Length of Visible Light 11h 44m
Length of Day
10h 46m
Waning Gibbous, 70% of the Moon is Illuminated
Feb 20
Waning Gibbous
Feb 22
Last Quarter
Mar 1
New
Mar 8
First Quarter
Mar 16
Full

Hourly Weather History & Observations

Time (CST) Temp. Windchill Dew Point Humidity Pressure Visibility Wind Dir Wind Speed Gust Speed Precip Events Conditions
12:15 AM 32.5 °F 23.7 °F 24.6 °F 73% 29.78 in 10.0 mi SSE 11.5 mph - N/A   Overcast
12:35 AM 32.5 °F 24.2 °F 24.4 °F 72% 29.77 in 10.0 mi SSE 10.4 mph - N/A   Mostly Cloudy
12:55 AM 32.7 °F 23.9 °F 24.4 °F 72% 29.75 in 10.0 mi SE 11.5 mph - N/A   Mostly Cloudy
1:15 AM 32.4 °F 23.0 °F 24.8 °F 74% 29.74 in 10.0 mi SE 12.7 mph - N/A   Overcast
1:35 AM 32.9 °F 26.7 °F 24.8 °F 72% 29.73 in 10.0 mi ESE 6.9 mph - N/A   Overcast
1:55 AM 32.5 °F 23.2 °F 25.3 °F 75% 29.71 in 10.0 mi SE 12.7 mph - N/A   Mostly Cloudy
2:15 AM 32.9 °F 24.1 °F 25.0 °F 73% 29.70 in 10.0 mi ESE 11.5 mph - N/A   Overcast
2:35 AM 32.7 °F 25.0 °F 25.0 °F 73% 29.71 in 10.0 mi ESE 9.2 mph - N/A   Scattered Clouds
2:55 AM 33.1 °F 27.7 °F 25.0 °F 72% 29.71 in 10.0 mi SE 5.8 mph - N/A   Clear
3:14 AM 32.9 °F 27.5 °F 25.2 °F 73% 29.70 in 10.0 mi East 5.8 mph - N/A   Mostly Cloudy
3:35 AM 32.0 °F 27.5 °F 25.7 °F 78% 29.69 in 10.0 mi ENE 4.6 mph - N/A   Overcast
3:55 AM 32.0 °F 26.4 °F 25.5 °F 77% 29.69 in 10.0 mi East 5.8 mph - N/A   Overcast
4:15 AM 32.0 °F 26.4 °F 25.3 °F 76% 29.69 in 10.0 mi East 5.8 mph - N/A   Overcast
4:35 AM 32.0 °F 26.4 °F 25.2 °F 76% 29.68 in 10.0 mi ENE 5.8 mph - N/A   Overcast
4:55 AM 32.0 °F 25.6 °F 25.7 °F 78% 29.68 in 10.0 mi East 6.9 mph - N/A   Overcast
5:15 AM 32.0 °F 24.8 °F 26.4 °F 80% 29.68 in 10.0 mi East 8.1 mph - N/A   Overcast
5:35 AM 32.2 °F 26.7 °F 27.1 °F 82% 29.67 in 7.0 mi East 5.8 mph - N/A   Overcast
5:55 AM 32.2 °F 25.0 °F 28.4 °F 86% 29.67 in 7.0 mi East 8.1 mph - N/A   Overcast
6:15 AM 32.2 °F 25.0 °F 29.3 °F 89% 29.66 in 7.0 mi East 8.1 mph - N/A   Overcast
6:35 AM 32.2 °F 23.8 °F 30.9 °F 95% 29.64 in 7.0 mi East 10.4 mph - N/A   Overcast
6:56 AM 32.2 °F 23.8 °F 32.2 °F 100% 29.63 in 4.0 mi East 10.4 mph - N/A   Overcast
7:35 AM 32.5 °F 24.8 °F 32.5 °F 100% 29.62 in 2.0 mi East 9.2 mph - N/A   Overcast
7:55 AM 32.9 °F 24.7 °F 32.9 °F 100% 29.61 in 1.8 mi East 10.4 mph - N/A   Overcast
8:15 AM 32.9 °F 24.1 °F 32.9 °F 100% 29.59 in 1.8 mi East 11.5 mph - N/A   Overcast
8:35 AM 33.3 °F 23.7 °F 33.3 °F 100% 29.58 in 1.5 mi East 13.8 mph - N/A   Overcast
8:55 AM 33.8 °F 24.8 °F 33.8 °F 100% 29.58 in 1.8 mi East 12.7 mph - N/A   Overcast
9:15 AM 34.0 °F 25.5 °F 34.0 °F 100% 29.59 in 2.5 mi ESE 11.5 mph - N/A   Overcast
9:35 AM 34.2 °F 25.7 °F 34.2 °F 100% 29.58 in 2.5 mi East 11.5 mph - N/A   Overcast
9:55 AM 34.5 °F 25.7 °F 34.5 °F 100% 29.56 in 3.0 mi East 12.7 mph - N/A   Overcast
10:15 AM 34.7 °F 25.9 °F 34.7 °F 100% 29.54 in 4.0 mi East 12.7 mph - N/A   Overcast
10:36 AM 34.9 °F 25.7 °F 34.9 °F 100% 29.52 in 4.0 mi East 13.8 mph - N/A   Overcast
10:55 AM 35.1 °F 25.2 °F 35.1 °F 100% 29.51 in 5.0 mi East 16.1 mph - N/A   Overcast
11:55 AM 35.4 °F 23.7 °F 35.4 °F 100% 29.43 in 5.0 mi East 23.0 mph 27.6 mph N/A   Overcast
12:15 PM 35.2 °F 23.8 °F 35.2 °F 100% 29.38 in 7.0 mi East 21.9 mph 29.9 mph N/A   Overcast
12:31 PM 35.6 °F 24.5 °F 35.6 °F 100% 29.37 in 5.0 mi East 20.7 mph 29.9 mph N/A   Overcast
12:35 PM 35.2 °F 23.2 °F 35.2 °F 100% 29.37 in 5.0 mi East 24.2 mph - N/A   Overcast
12:55 PM 35.2 °F 23.8 °F 35.2 °F 100% 29.33 in 2.5 mi East 21.9 mph 27.6 mph N/A   Overcast
1:15 PM 34.9 °F 22.5 °F 34.9 °F 100% 29.31 in 2.0 mi East 25.3 mph 29.9 mph N/A   Overcast
1:35 PM 34.7 °F 23.7 °F 34.7 °F 100% 29.30 in 2.0 mi East 19.6 mph - N/A   Overcast
1:55 PM 34.3 °F 21.5 °F 34.3 °F 100% 29.26 in 2.0 mi East 26.5 mph 33.4 mph N/A   Overcast
2:16 PM 34.2 °F 21.8 °F 34.2 °F 100% 29.26 in 2.5 mi East 24.2 mph 28.8 mph N/A   Overcast
2:35 PM 34.0 °F 23.8 °F 34.0 °F 100% 29.24 in 3.0 mi East 16.1 mph 25.3 mph N/A   Overcast
5:15 PM 33.3 °F 24.1 °F 33.3 °F 100% 29.10 in 10.0 mi East 12.7 mph - N/A   Overcast
5:35 PM 33.3 °F 24.1 °F 33.3 °F 100% 29.06 in 7.0 mi East 12.7 mph - N/A   Overcast
6:15 PM 33.3 °F 28.9 °F 33.3 °F 100% 29.04 in 7.0 mi ENE 4.6 mph 10.4 mph N/A   Overcast
6:35 PM 33.3 °F - 33.3 °F 100% 29.05 in 1.2 mi Calm Calm - 0.01 in   Overcast
6:55 PM 32.9 °F 25.9 °F 32.9 °F 100% 29.06 in 1.5 mi WNW 8.1 mph - 0.04 in   Overcast
7:15 PM 32.5 °F 24.2 °F 32.5 °F 100% 29.05 in 1.5 mi WNW 10.4 mph - N/A   Overcast
7:35 PM 32.4 °F 23.5 °F 32.4 °F 100% 29.04 in 2.0 mi WNW 11.5 mph 16.1 mph N/A   Overcast
7:55 PM 32.0 °F 23.6 °F 32.0 °F 100% 29.04 in 2.5 mi WNW 10.4 mph - N/A   Overcast
8:15 PM 32.0 °F 24.2 °F 32.0 °F 100% 29.04 in 1.0 mi WNW 9.2 mph - N/A   Overcast
8:35 PM 32.0 °F 23.6 °F 32.0 °F 100% 29.05 in 0.5 mi West 10.4 mph - N/A   Overcast
8:55 PM 32.0 °F 22.5 °F 32.0 °F 100% 29.06 in 1.2 mi West 12.7 mph - N/A   Overcast
9:15 PM 32.0 °F 21.6 °F 32.0 °F 100% 29.06 in 0.8 mi West 15.0 mph - N/A   Overcast
9:35 PM 32.0 °F 20.8 °F 32.0 °F 100% 29.07 in 2.5 mi West 17.3 mph 24.2 mph N/A   Overcast
9:55 PM 32.0 °F 20.5 °F 32.0 °F 100% 29.08 in 1.8 mi West 18.4 mph 25.3 mph N/A   Overcast
10:15 PM 32.0 °F 20.8 °F 32.0 °F 100% 29.08 in 4.0 mi West 17.3 mph 27.6 mph N/A   Overcast
10:35 PM 32.0 °F 20.5 °F 32.0 °F 100% 29.08 in 3.0 mi West 18.4 mph 26.5 mph N/A   Overcast
10:55 PM 32.0 °F 20.5 °F 32.0 °F 100% 29.09 in 5.0 mi West 18.4 mph 26.5 mph N/A   Overcast
11:15 PM 32.2 °F 21.4 °F 32.2 °F 100% 29.10 in 2.0 mi West 16.1 mph 29.9 mph N/A   Overcast
11:35 PM 32.0 °F 19.5 °F 32.0 °F 100% 29.10 in 1.8 mi West 21.9 mph 33.4 mph N/A   Overcast
11:55 PM 31.5 °F 20.1 °F 31.5 °F 100% 29.12 in 1.8 mi West 17.3 mph 36.8 mph N/A   Overcast